Total_Precipitation_Accumulation
0.61 0.72 0.74 0.70 0.69 0.69 0.67 0.67 0.68 0.66 0.70 0.67 0.53 0.49 0.50 0.46 0.36 0.29 0.17 0.12 0.10 0.09 0.09 0.09 0.08 0.10 0.12 0.15 0.20 0.27 0.34 0.41 0.49 0.62 0.75 0.89 1.01 1.16
0.77 0.86 0.88 0.89 0.87 0.77 0.74 0.73 0.69 0.71 0.71 0.60 0.49 0.48 0.44 0.31 0.26 0.21 0.13 0.10 0.09 0.08 0.08 0.07 0.07 0.09 0.09 0.09 0.10 0.12 0.14 0.17 0.21 0.27 0.38 0.50 0.63 0.80
0.90 1.00 1.04 1.06 1.05 0.93 0.82 0.73 0.70 0.73 0.67 0.52 0.43 0.40 0.34 0.25 0.20 0.14 0.10 0.07 0.06 0.08 0.07 0.06 0.05 0.06 0.06 0.06 0.06 0.07 0.08 0.10 0.12 0.14 0.19 0.24 0.29 0.37
0.93 1.08 1.16 1.12 1.01 0.94 0.90 0.81 0.76 0.77 0.68 0.53 0.45 0.39 0.34 0.30 0.25 0.19 0.12 0.08 0.06 0.09 0.07 0.05 0.05 0.04 0.03 0.03 0.03 0.04 0.05 0.06 0.07 0.08 0.11 0.14 0.15 0.17
0.93 0.98 1.00 1.06 1.03 0.94 0.85 0.80 0.76 0.81 0.72 0.55 0.49 0.43 0.38 0.34 0.28 0.22 0.16 0.12 0.07 0.07 0.08 0.07 0.06 0.03 0.02 0.02 0.02 0.02 0.02 0.03 0.04 0.06 0.08 0.11 0.13 0.13
0.79 0.84 0.87 0.90 0.95 0.98 0.91 0.83 0.81 0.79 0.71 0.59 0.51 0.52 0.44 0.38 0.30 0.24 0.19 0.13 0.08 0.04 0.06 0.10 0.09 0.04 0.02 0.01 0.01 0.01 0.01 0.02 0.03 0.05 0.05 0.06 0.12 0.18
0.51 0.52 0.64 0.80 0.90 0.95 0.91 0.86 0.84 0.78 0.73 0.67 0.58 0.53 0.48 0.41 0.32 0.22 0.16 0.13 0.09 0.05 0.04 0.05 0.04 0.02 0.01 0.01 0.01 0.01 0.01 0.01 0.02 0.02 0.03 0.05 0.09 0.20
0.33 0.31 0.32 0.46 0.65 0.78 0.81 0.80 0.81 0.79 0.76 0.70 0.67 0.62 0.49 0.38 0.29 0.21 0.14 0.10 0.10 0.09 0.08 0.07 0.04 0.02 0.00 0.00 0.00 0.01 0.01 0.01 0.02 0.02 0.02 0.02 0.05 0.15
0.27 0.26 0.21 0.21 0.33 0.46 0.57 0.63 0.66 0.63 0.65 0.71 0.72 0.66 0.59 0.45 0.31 0.24 0.20 0.14 0.10 0.07 0.06 0.06 0.03 0.01 0.00 0.00 0.00 0.00 0.00 0.01 0.02 0.04 0.05 0.02 0.01 0.04
0.25 0.23 0.20 0.20 0.22 0.27 0.36 0.45 0.51 0.51 0.48 0.50 0.57 0.64 0.67 0.57 0.40 0.32 0.26 0.20 0.13 0.07 0.05 0.06 0.03 0.02 0.02 0.02 0.00 0.00 0.00 0.00 0.01 0.07 0.18 0.20 0.10 0.05
0.25 0.24 0.22 0.18 0.17 0.18 0.25 0.30 0.36 0.44 0.46 0.46 0.47 0.51 0.56 0.57 0.49 0.34 0.24 0.16 0.11 0.08 0.04 0.03 0.03 0.04 0.04 0.04 0.02 0.01 0.00 0.00 0.01 0.06 0.21 0.45 0.51 0.32
0.33 0.30 0.24 0.20 0.16 0.12 0.17 0.23 0.26 0.29 0.35 0.39 0.41 0.40 0.38 0.40 0.41 0.32 0.21 0.14 0.09 0.07 0.04 0.02 0.01 0.02 0.05 0.04 0.03 0.03 0.01 0.00 0.01 0.06 0.25 0.59 0.71 0.63
0.38 0.35 0.29 0.20 0.15 0.11 0.12 0.18 0.21 0.25 0.28 0.32 0.39 0.41 0.40 0.37 0.33 0.27 0.23 0.15 0.08 0.05 0.02 0.01 0.01 0.01 0.02 0.02 0.01 0.01 0.02 0.01 0.01 0.03 0.12 0.40 0.68 0.71
0.53 0.45 0.38 0.28 0.17 0.14 0.13 0.13 0.16 0.20 0.30 0.31 0.34 0.39 0.39 0.38 0.34 0.29 0.23 0.18 0.11 0.06 0.03 0.01 0.01 0.01 0.01 0.01 0.01 0.01 0.02 0.01 0.03 0.04 0.05 0.14 0.32 0.61
0.63 0.59 0.47 0.36 0.27 0.20 0.19 0.18 0.15 0.16 0.23 0.30 0.29 0.29 0.29 0.31 0.36 0.36 0.32 0.22 0.13 0.08 0.05 0.03 0.01 0.00 0.00 0.01 0.02 0.02 0.02 0.01 0.02 0.05 0.07 0.10 0.21 0.39
0.62 0.63 0.52 0.44 0.38 0.32 0.28 0.25 0.20 0.17 0.19 0.26 0.28 0.29 0.31 0.33 0.34 0.34 0.30 0.23 0.14 0.09 0.05 0.03 0.02 0.01 0.00 0.00 0.00 0.01 0.01 0.01 0.02 0.03 0.07 0.13 0.23 0.32
0.74 0.81 0.71 0.59 0.52 0.46 0.39 0.34 0.30 0.27 0.24 0.26 0.33 0.34 0.35 0.34 0.31 0.26 0.23 0.18 0.13 0.07 0.04 0.02 0.01 0.01 0.00 0.00 0.00 0.00 0.00 0.00 0.00 0.01 0.01 0.05 0.15 0.21
0.79 0.91 0.81 0.68 0.58 0.52 0.47 0.42 0.39 0.35 0.32 0.30 0.31 0.35 0.34 0.33 0.30 0.24 0.19 0.15 0.11 0.07 0.04 0.03 0.02 0.01 0.01 0.00 0.00 0.00 0.00 0.00 0.00 0.00 0.00 0.00 0.03 0.10
0.68 0.80 0.75 0.67 0.60 0.56 0.51 0.45 0.41 0.39 0.39 0.37 0.35 0.34 0.35 0.32 0.27 0.22 0.18 0.14 0.11 0.09 0.05 0.03 0.02 0.01 0.01 0.01 0.00 0.00 0.00 0.00 0.00 0.00 0.00 0.00 0.01 0.02
0.60 0.67 0.66 0.62 0.58 0.57 0.54 0.51 0.45 0.46 0.46 0.45 0.42 0.37 0.36 0.33 0.27 0.21 0.17 0.13 0.09 0.08 0.06 0.03 0.02 0.01 0.01 0.01 0.00 0.00 0.00 0.00 0.00 0.00 0.00 0.00 0.00 0.00
0.56 0.58 0.59 0.56 0.55 0.55 0.55 0.54 0.52 0.50 0.48 0.48 0.48 0.42 0.37 0.34 0.27 0.20 0.18 0.16 0.10 0.07 0.06 0.04 0.02 0.01 0.01 0.01 0.00 0.00 0.00 0.00 0.00 0.00 0.00 0.00 0.00 0.00
0.54 0.51 0.52 0.52 0.51 0.51 0.51 0.52 0.54 0.53 0.50 0.47 0.49 0.47 0.40 0.34 0.28 0.21 0.18 0.15 0.10 0.07 0.05 0.04 0.03 0.02 0.01 0.01 0.01 0.00 0.00 0.00 0.00 0.00 0.00 0.00 0.00 0.00
0.50 0.48 0.47 0.44 0.42 0.43 0.43 0.44 0.47 0.49 0.46 0.44 0.45 0.46 0.42 0.35 0.29 0.23 0.18 0.15 0.11 0.09 0.07 0.05 0.04 0.02 0.01 0.01 0.00 0.00 0.00 0.00 0.00 0.00 0.00 0.00 0.00 0.00